Location: Shepherdstown, WV
(39.4326°N, 77.8042°W)
Time: 10:43:26
(UTC-04:00)

Transit 2A - Pass Details

Date: 06 August 2021
Orbit: 595 x 964 km, 66.7° (Epoch: 18 September)

Event Time Altitude Azimuth Distance (km) Brightness Sun altitude
Exits shadow 05:04:13 - 177° (S) 2,704 8.5 -13.0°
Reaches altitude 10° 05:06:23 10° 165° (SSE) 1,932 7.9 -12.6°
Maximum altitude 05:09:57 25° 109° (ESE) 1,233 7.5 -12.0°
Drops below altitude 10° 05:13:41 10° 53° (NE) 2,032 9.8 -11.4°
Sets 05:16:20 0° 41° (NE) 2,999 10.7 -11.0°
